Chamberlain, SD

1:21 AM CDT on March 25, 2017 (GMT -0500)
Chamberlain

Weather History for K9V9 - September, 2012

Change the Weather History Date:

Monday, September 17, 2012

  Actual Average Record
Temperature  
Mean Temperature 56 °F -  
Max Temperature 68 °F 73 °F 97 °F (2000)
Min Temperature 46 °F 47 °F 42 °F (2006)
Degree Days  
Heating Degree Days 9    
Growing Degree Days 6 (Base 50)    
Moisture  
Dew Point 36 °F    
Average Humidity 52    
Maximum Humidity 83    
Minimum Humidity 24    
Precipitation  
Precipitation 0.00 in - - ()
Sea Level Pressure  
Sea Level Pressure 30.11 in    
Wind  
Wind Speed 14 mph (NNW)    
Max Wind Speed 23 mph    
Max Gust Speed 30 mph    
Averages and records for this station are not official NWS values.
T = Trace of Precipitation, MM = Missing Value Source: NWS Daily Summary

Daily Weather History Graph

Daily Weather History Graph

Search for Another Location

Airport or City:

Trip Planner

Search our weather history database for the weather conditions in past years. The results will help you decide how hot, cold, wet, or windy it might be!

Date:

Astronomy

Sep. 17, 2012 Rise Set
Actual Time 7:19 AM CDT 7:42 PM CDT
Civil Twilight 6:50 AM CDT 8:11 PM CDT
Nautical Twilight 6:16 AM CDT 8:45 PM CDT
Astronomical Twilight 5:41 AM CDT 9:20 PM CDT
Moon 9:16 AM CDT (9/17) 8:19 PM CDT (9/17)
Length of Visible Light 13h 21m
Length of Day
12h 23m
Waxing Crescent, 3% of the Moon is Illuminated
Sep 17
Waxing Crescent
Sep 22
First Quarter
Sep 29
Full
Oct 8
Last Quarter
Oct 15
New

Hourly Weather History & Observations

Time (CDT) Temp. Dew Point Humidity Pressure Visibility Wind Dir Wind Speed Gust Speed Precip Events Conditions
12:52 AM 53.1 °F 44.1 °F 71% 30.04 in - North 18.4 mph - N/A   Unknown
1:52 AM 51.1 °F 42.1 °F 71% 30.07 in - North 23.0 mph 29.9 mph N/A   Unknown
2:52 AM 51.1 °F 43.0 °F 74% 30.09 in - NNE 18.4 mph 26.5 mph N/A   Unknown
3:52 AM 51.1 °F 43.0 °F 74% 30.09 in - North 16.1 mph 24.2 mph N/A   Unknown
4:52 AM 50.0 °F 44.1 °F 80% 30.09 in - North 15.0 mph - N/A   Unknown
5:52 AM 50.0 °F 44.1 °F 80% 30.12 in - North 13.8 mph - N/A   Unknown
6:52 AM 48.0 °F 43.0 °F 83% 30.13 in - North 10.4 mph - N/A   Unknown
7:52 AM 48.0 °F 43.0 °F 83% 30.14 in - North 5.8 mph - N/A   Unknown
8:52 AM 48.9 °F 43.0 °F 80% 30.14 in - NNW 6.9 mph - N/A   Unknown
9:52 AM 53.1 °F 44.1 °F 71% 30.15 in - WNW 3.5 mph - N/A   Unknown
10:52 AM 57.9 °F 37.9 °F 47% 30.14 in - WNW 9.2 mph - N/A   Unknown
11:52 AM 61.0 °F 37.9 °F 42% 30.14 in - NW 5.8 mph - N/A   Unknown
12:52 PM 64.0 °F 37.0 °F 37% 30.12 in - NNW 5.8 mph 18.4 mph N/A   Unknown
1:52 PM 64.0 °F 37.0 °F 37% 30.10 in - NW 10.4 mph 19.6 mph N/A   Unknown
2:52 PM 64.9 °F 36.0 °F 34% 30.08 in - NW 16.1 mph 23.0 mph N/A   Unknown
3:52 PM 64.9 °F 33.1 °F 31% 30.06 in - NNW 18.4 mph 28.8 mph N/A   Unknown
4:52 PM 64.9 °F 30.9 °F 28% 30.07 in - North 13.8 mph 24.2 mph N/A   Unknown
5:52 PM 64.9 °F 28.9 °F 26% 30.07 in - North 18.4 mph 24.2 mph N/A   Unknown
6:52 PM 62.1 °F 25.0 °F 24% 30.10 in - NNW 12.7 mph 23.0 mph N/A   Unknown
7:52 PM 57.9 °F 24.1 °F 27% 30.11 in - NNW 11.5 mph - N/A   Unknown
8:52 PM 55.9 °F 27.0 °F 33% 30.12 in - North 10.4 mph - N/A   Unknown
9:52 PM 52.0 °F 28.9 °F 41% 30.12 in - North 6.9 mph - N/A   Unknown
10:52 PM 50.0 °F 27.0 °F 41% 30.11 in - North 8.1 mph - N/A   Unknown
11:52 PM 46.9 °F 26.1 °F 44% 30.12 in - NNE 6.9 mph - N/A   Unknown